Location: Unspecified
(58.9933°N, 5.6375°E)
Time: 11:17:57
(UTC+02:00)

Resurs 1-4 Rocket - Visible Passes

Search period start: 30 July 2016 00:00
Search period end: 09 August 2016 00:00
Orbit: 800 x 814 km, 98.4° (Epoch: 29 July)

Date Brightness Start Highest point End Pass type
(mag) Time Alt. Az. Time Alt. Az. Time Alt. Az.
30 Jul 4.5 02:53:54 10° NE 02:56:49 15° E 02:59:44 10° ESE visible
31 Jul 3.1 04:08:02 10° NNE 04:13:06 44° E 04:18:07 10° S visible
01 Aug 3.7 03:43:40 10° NNE 03:48:20 31° E 03:52:59 10° SSE visible
02 Aug 4.1 03:19:26 10° NE 03:23:29 22° E 03:27:31 10° SE visible
03 Aug 4.5 02:55:32 10° NE 02:58:33 15° E 03:01:34 10° ESE visible
04 Aug 4.8 02:33:05 10° ENE 02:33:32 10° ENE 02:33:59 10° E visible
04 Aug 3.0 04:09:43 10° NNE 04:14:48 45° E 04:19:51 10° S visible
05 Aug 3.6 03:45:20 10° NNE 03:50:03 32° E 03:54:44 10° SSE visible
06 Aug 4.1 03:21:06 10° NE 03:25:12 22° E 03:29:17 10° SE visible
07 Aug 4.5 02:57:09 10° NE 03:00:17 16° E 03:03:24 10° ESE visible
07 Aug 2.5 04:35:54 10° NNE 04:41:11 67° ESE 04:46:25 10° S visible
08 Aug 4.7 02:34:16 10° ENE 02:35:16 10° ENE 02:36:16 10° E visible
08 Aug 3.0 04:11:25 10° NNE 04:16:31 47° E 04:21:34 10° S visible
